Regional Weather Roundup
Issued by NWS Sterling, VA

Home | Current Version | Previous Version | Text Only | Print | Product List | Glossary On
Versions: 1 2 3 4 5 6 7 8 9 10 11 12 13 14 15 16 17 18 19 20 21 22 23 24 25 26 27 28 29 30 31 32 33 34 35 36 37 38 39 40 41 42 43 44 45 46 47 48 49 50
000
ASUS41 KLWX 251011
RWRLWX

REGIONAL WEATHER ROUNDUP
NATIONAL WEATHER SERVICE BALTIMORE MD/WASHINGTON DC
600 AM EDT TUE JUL 25 2017

Note: "FAIR" indicates few or no clouds below 12,000 feet
with no significant weather and/or obstructions to visibility.
 TC=TEMPERATURE CELSIUS

 * =Non NWS site. Station does not report precipitation (e.g. rain,
    snow, etc.), thunder, or fog.

DCZ001-MDZ009-015-VAZ040>042-051-053>054-251100-
WASHINGTON METRO

CITY           SKY/WX    TMP DP  RH WIND       PRES   REMARKS
WASHINGTON NAT MOCLDY    72  58  61 NW10      30.03R
DULLES         PTCLDY    66  56  70 W7        30.04R
ANDREWS AFB    PTCLDY    70  56  60 NW7       30.01R
FT BELVOIR     PTCLDY    71  57  61 NW6       30.02R
QUANTICO       PTCLDY    73  60  63 N12       30.03R
COLLEGE PARK*  CLOUDY    69  57  65 CALM      30.02R
LEESBURG*      CLOUDY    68  59  73 NW6       30.05R
MANASSAS*      CLOUDY    68  58  70 N9        30.04R
GAITHERSBURG*  CLOUDY    64  56  75 NW6       30.04R

$$

MDZ006>007-011-014-251100-
BALTIMORE METRO

CITY           SKY/WX    TMP DP  RH WIND       PRES   REMARKS
BWI AIRPORT    MOCLDY    65  61  87 W6        30.01R
MD SCIENCE CTR   N/A     72  58  61 MISG      30.01R
MARTIN STATE   PTCLDY    66  64  94 NW5       30.01R
ANNAPOLIS      PTCLDY    73  63  70 W8        30.00R
FORT MEADE*    CLOUDY    63  61  94 CALM      30.04R

$$

MDZ012-015-019>023-251100-
MARYLAND EASTERN SHORE

CITY           SKY/WX    TMP DP  RH WIND       PRES   REMARKS
OCEAN CITY     PTCLDY    70  70 100 NW8       29.97R
SALISBURY      CLOUDY    72  72 100 NW6       29.98
BAY BRIDGE AP* PTCLDY    73  61  64 NW12      29.99R
CAMBRIDGE*     CLEAR     75  64  69 N9        29.98S
EASTON*        PTCLDY    70  66  88 CALM      30.02R

$$

MDZ017>025-251100-
SOUTHERN MARYLAND

CITY           SKY/WX    TMP DP  RH WIND       PRES   REMARKS
PATUXENT RIVER PTCLDY    74  66  76 N10       29.99R
ST INIGOES     CLEAR     75  66  73 VRB5      29.99R
LEONARDTOWN*   CLEAR     72  63  73 CALM      30.02R

$$

MDZ003>005-251100-
NORTH CENTRAL MARYLAND

CITY           SKY/WX    TMP DP  RH WIND       PRES   REMARKS
FREDERICK*     CLEAR     64  54  68 NW5       30.06R
HAGERSTOWN APT CLEAR     65  55  70 NW9       30.04R
WESTMINSTER*   CLEAR     66  57  72 NW6       30.03R

$$

MDZ501>502-251100-
WESTERN MARYLAND

CITY           SKY/WX    TMP DP  RH WIND       PRES   REMARKS
OAKLAND*       CLEAR     52  52 100 NW8       30.11S
CUMBERLAND*    CLEAR     63  57  82 CALM      30.12R

$$

VAZ025>031-251100-
SHENANDOAH VALLEY

CITY           SKY/WX    TMP DP  RH WIND       PRES   REMARKS
WINCHESTER*    MOCLDY    63  54  72 NW5       30.07R
FRONT ROYAL*   CLEAR     63  57  82 CALM      30.06R
LURAY*         CLOUDY    66  61  82 N6        30.06R
NEW MARKET*    CLOUDY    66  57  73 CALM      30.07R
STAUNTON*      CLOUDY    67  62  82 N5        30.08S
WAYNESBORO*    MOCLDY    67  63  85 NW6       30.08R

$$

WVZ021-048>050-054>055-251100-
EASTERN WEST VIRGINIA PANHANDLE

CITY           SKY/WX    TMP DP  RH WIND       PRES   REMARKS
MARTINSBURG    CLEAR     66  54  65 NW13      30.05R
PETERSBURG*    PTCLDY    64  57  78 CALM      30.09S

$$

VAZ036>039-050-251100-
CENTRAL FOOTHILLS

CITY           SKY/WX    TMP DP  RH WIND       PRES   REMARKS
CHARLOTTESVILL MOCLDY    71  66  84 CALM      30.03R
CULPEPER*      MOCLDY    68  59  74 N6        30.04S
ORANGE*        MOCLDY    68  61  77 CALM      30.02R
GORDONSVILLE*  CLOUDY    67  66  99 CALM      30.02R
WARRENTON*     CLOUDY    69  55  60 N5        30.03R

$$

VAZ055>057-251100-
NORTH AND CENTRAL PIEDMONT

CITY           SKY/WX    TMP DP  RH WIND       PRES   REMARKS
FREDERICKSBRG* PTCLDY    72  61  67 MISG      30.02R
STAFFORD*      CLOUDY    69  59  71 N8        30.07R

$$

NCZ024-NYZ072-PAZ021-071-VAZ022-071-251100-
OTHER REGIONAL OBSERVATIONS

CITY           SKY/WX    TMP DP  RH WIND       PRES   REMARKS
NEW YORK CITY  CLOUDY    63  59  87 CALM      30.04R
PHILADELPHIA   CLOUDY    67  64  90 NE6       30.00R
PITTSBURGH     CLOUDY    62  57  83 SW5       30.11R
ROANOKE        PTCLDY    71  65  81 SW5       30.09R
RICHMOND       PTCLDY    73  67  81 N8        30.01R
RALEIGH        MOCLDY    75  74  96 CALM      30.02R

$$

ANZ530>537-251100-
MARINE OBSERVATIONS

STATION/POSITION TIME  TEMP    WIND        PRES
                       AIR SEA DIR/SP/G
                 (UTC) (F)     (DEG/KT/KT) (MB)
THOMAS PT LIGHT  1000   72 82  320/ 12/ 13   N/A
BALT KEY BRIDGE  0948   73     310/ 13/ 15 1015.7R
COVE POINT       0948   76     350/ 15/ 18 1016.3R
LEWISETTA        0948   77 84   10/  7/ 11 1015.7R
SOLOMONS ISLAND  0948   75 83  340/  9/ 10   N/A
PINEY POINT      0948           10/ 10/ 12   N/A

$$




USA.gov is the U.S. government's official web portal to all federal, state and local government web resources and services.